| time (UTC) | temp C | wind direction | speed KPH | gust KPH | rain 1hr cm | rain 24hr cm | rain mn cm | humidity % | barometer mb |
| 20260507124552 | 12 | 23 | 0.0 | 0.0 | 0.00 | 0.00 | 0.00 | 68 | 1013.6 |
| 20260507124050 | 12 | 18 | 0.0 | 0.0 | 0.00 | 0.00 | 0.00 | 69 | 1013.3 |
| 20260507123547 | 12 | 36 | 0.0 | 0.0 | 0.00 | 0.00 | 0.00 | 69 | 1013.4 |
| 20260507123044 | 12 | 46 | 0.0 | 0.0 | 0.00 | 0.00 | 0.00 | 70 | 1013.4 |
| 20260507122539 | 13 | 29 | 0.0 | 0.0 | 0.00 | 0.00 | 0.00 | 66 | 1013.1 |
| 20260507122035 | 13 | 4 | 0.0 | 0.0 | 0.00 | 0.00 | 0.00 | 65 | 1013.3 |
| 20260507121531 | 13 | 5 | 0.0 | 0.0 | 0.00 | 0.00 | 0.00 | 65 | 1013.4 |
| 20260507121027 | 13 | 39 | 0.0 | 0.0 | 0.00 | 0.00 | 0.00 | 66 | 1013.1 |
| 20260507120523 | 13 | 18 | 0.0 | 0.0 | 0.00 | 0.00 | 0.00 | 68 | 1013.3 |
| 20260507120021 | 13 | 304 | 0.0 | 0.0 | 0.00 | 0.00 | 0.00 | 66 | 1013.3 |
| 20260507115517 | 13 | 321 | 0.0 | 0.0 | 0.00 | 0.00 | 0.00 | 65 | 1013.2 |
| 20260507115013 | 13 | 333 | 0.0 | 3.2 | 0.00 | 0.00 | 0.00 | 66 | 1013.3 |
| 20260507114509 | 12 | 357 | 0.0 | 0.0 | 0.00 | 0.00 | 0.00 | 67 | 1013.1 |
| 20260507114006 | 13 | 13 | 0.0 | 0.0 | 0.00 | 0.00 | 0.00 | 66 | 1013.2 |
| 20260507113503 | 13 | 19 | 0.0 | 0.0 | 0.00 | 0.00 | 0.00 | 67 | 1013.1 |
| 20260507113000 | 13 | 42 | 0.0 | 0.0 | 0.00 | 0.00 | 0.00 | 65 | 1013.1 |
| 20260507112458 | 13 | 46 | 0.0 | 0.0 | 0.00 | 0.00 | 0.00 | 67 | 1012.9 |
| 20260507111954 | 13 | 44 | 0.0 | 8.0 | 0.00 | 0.00 | 0.00 | 69 | 1013.0 |
| 20260507111452 | 12 | 54 | 0.0 | 0.0 | 0.00 | 0.00 | 0.00 | 72 | 1013.1 |
| 20260507110948 | 13 | 75 | 4.8 | 8.0 | 0.00 | 0.00 | 0.00 | 72 | 1013.1 |
| 20260507110444 | 14 | 33 | 0.0 | 0.0 | 0.00 | 0.00 | 0.00 | 62 | 1012.8 |
| 20260507105941 | 14 | 304 | 1.6 | 3.2 | 0.00 | 0.00 | 0.00 | 62 | 1012.9 |
| 20260507105438 | 13 | 331 | 0.0 | 1.6 | 0.00 | 0.00 | 0.00 | 64 | 1012.8 |
| 20260507104935 | 13 | 16 | 0.0 | 0.0 | 0.00 | 0.00 | 0.00 | 65 | 1012.7 |
| 20260507104432 | 14 | 61 | 0.0 | 0.0 | 0.00 | 0.00 | 0.00 | 64 | 1012.4 |
| 20260507103927 | 16 | 4 | 0.0 | 0.0 | 0.00 | 0.00 | 0.00 | 62 | 1012.6 |
| 20260507103424 | 15 | 297 | 1.6 | 8.0 | 0.00 | 0.00 | 0.00 | 57 | 1012.4 |
| 20260507102920 | 15 | 297 | 0.0 | 9.7 | 0.00 | 0.00 | 0.00 | 57 | 1012.4 |
| 20260507102417 | 15 | 332 | 3.2 | 8.0 | 0.00 | 0.00 | 0.00 | 57 | 1012.5 |
| 20260507101913 | 16 | 296 | 3.2 | 11.3 | 0.00 | 0.00 | 0.00 | 57 | 1012.5 |
| 20260507101409 | 16 | 306 | 1.6 | 12.9 | 0.00 | 0.00 | 0.00 | 54 | 1012.6 |
| 20260507100905 | 16 | 301 | 0.0 | 16.1 | 0.00 | 0.00 | 0.00 | 53 | 1012.5 |
| 20260507100403 | 16 | 287 | 14.5 | 20.9 | 0.00 | 0.00 | 0.00 | 52 | 1012.3 |
| 20260507095901 | 16 | 283 | 8.0 | 22.5 | 0.00 | 0.00 | 0.00 | 52 | 1012.3 |
| 20260507095358 | 16 | 281 | 8.0 | 17.7 | 0.00 | 0.00 | 0.00 | 53 | 1012.4 |
| 20260507094855 | 16 | 289 | 14.5 | 17.7 | 0.00 | 0.00 | 0.00 | 52 | 1012.4 |
| 20260507094351 | 16 | 306 | 3.2 | 14.5 | 0.00 | 0.00 | 0.00 | 53 | 1012.5 |
| 20260507093848 | 15 | 309 | 3.2 | 9.7 | 0.00 | 0.00 | 0.00 | 54 | 1012.3 |
| 20260507093346 | 15 | 326 | 0.0 | 0.0 | 0.00 | 0.00 | 0.00 | 55 | 1012.6 |
| 20260507092844 | 16 | 352 | 0.0 | 0.0 | 0.00 | 0.00 | 0.00 | 54 | 1012.8 |
| 20260507092340 | 16 | 44 | 0.0 | 0.0 | 0.00 | 0.00 | 0.00 | 55 | 1012.5 |
| 20260507091837 | 16 | 46 | 0.0 | 0.0 | 0.00 | 0.00 | 0.00 | 56 | 1012.5 |
| 20260507091333 | 16 | 8 | 0.0 | 0.0 | 0.00 | 0.00 | 0.00 | 56 | 1012.2 |
| 20260507090829 | 16 | 10 | 0.0 | 0.0 | 0.00 | 0.00 | 0.00 | 57 | 1012.1 |
| 20260507090326 | 16 | 14 | 0.0 | 0.0 | 0.00 | 0.00 | 0.00 | 52 | 1012.0 |
| 20260507085823 | 17 | 302 | 0.0 | 0.0 | 0.00 | 0.00 | 0.00 | 49 | 1012.1 |
| 20260507085319 | 17 | 234 | 0.0 | 1.6 | 0.00 | 0.00 | 0.00 | 50 | 1012.1 |
| 20260507084817 | 17 | 290 | 0.0 | 16.1 | 0.00 | 0.00 | 0.00 | 49 | 1012.2 |
| 20260507084313 | 16 | 297 | 0.0 | 0.0 | 0.00 | 0.00 | 0.00 | 52 | 1012.3 |
| 20260507083811 | 16 | 290 | 0.0 | 0.0 | 0.00 | 0.00 | 0.00 | 53 | 1011.9 |
| 20260507083307 | 16 | 334 | 0.0 | 0.0 | 0.00 | 0.00 | 0.00 | 53 | 1012.1 |
| 20260507082803 | 16 | 303 | 0.0 | 1.6 | 0.00 | 0.00 | 0.00 | 55 | 1012.0 |
| 20260507082259 | 16 | 311 | 0.0 | 0.0 | 0.00 | 0.00 | 0.00 | 54 | 1011.9 |
| 20260507081756 | 16 | 333 | 0.0 | 0.0 | 0.00 | 0.00 | 0.00 | 54 | 1011.9 |
| 20260507081252 | 16 | 312 | 0.0 | 0.0 | 0.00 | 0.00 | 0.00 | 55 | 1012.2 |
| 20260507080749 | 17 | 343 | 0.0 | 0.0 | 0.00 | 0.00 | 0.00 | 56 | 1012.1 |
| 20260507080245 | 16 | 22 | 0.0 | 0.0 | 0.00 | 0.00 | 0.00 | 59 | 1012.1 |
| 20260507075741 | 16 | 39 | 0.0 | 0.0 | 0.00 | 0.00 | 0.00 | 61 | 1012.1 |
| 20260507075237 | 16 | 41 | 0.0 | 0.0 | 0.00 | 0.00 | 0.00 | 63 | 1012.0 |
| 20260507074733 | 15 | 41 | 0.0 | 0.0 | 0.00 | 0.00 | 0.00 | 68 | 1011.9 |
| 20260507074232 | 16 | 67 | 0.0 | 0.0 | 0.00 | 0.00 | 0.00 | 68 | 1011.9 |
| 20260507073728 | 17 | 122 | 0.0 | 0.0 | 0.00 | 0.00 | 0.00 | 59 | 1011.7 |
| 20260507073224 | 16 | 329 | 0.0 | 0.0 | 0.00 | 0.00 | 0.00 | 60 | 1011.4 |
| 20260507072723 | 17 | 267 | 0.0 | 0.0 | 0.00 | 0.00 | 0.00 | 61 | 1011.7 |
| 20260507072219 | 17 | 275 | 1.6 | 11.3 | 0.00 | 0.00 | 0.00 | 51 | 1011.6 |
| 20260507071717 | 17 | 314 | 0.0 | 0.0 | 0.00 | 0.00 | 0.00 | 57 | 1011.2 |
| 20260507071213 | 17 | 46 | 0.0 | 0.0 | 0.00 | 0.00 | 0.00 | 61 | 1011.4 |
| 20260507070710 | 16 | 41 | 0.0 | 0.0 | 0.00 | 0.00 | 0.00 | 62 | 1011.4 |
| 20260507070207 | 16 | 44 | 0.0 | 0.0 | 0.00 | 0.00 | 0.00 | 65 | 1011.3 |
| 20260507065703 | 16 | 55 | 0.0 | 0.0 | 0.00 | 0.00 | 0.00 | 68 | 1011.6 |
| 20260507065201 | 16 | 64 | 0.0 | 0.0 | 0.00 | 0.00 | 0.00 | 68 | 1011.2 |
| 20260507064658 | 17 | 65 | 0.0 | 0.0 | 0.00 | 0.00 | 0.00 | 64 | 1011.2 |
| 20260507064156 | 17 | 0 | 0.0 | 0.0 | 0.00 | 0.00 | 0.00 | 61 | 1011.2 |
| 20260507063654 | 17 | 1 | 0.0 | 0.0 | 0.00 | 0.00 | 0.00 | 63 | 1011.3 |
| 20260507063150 | 16 | 37 | 0.0 | 0.0 | 0.00 | 0.00 | 0.00 | 65 | 1011.2 |
| 20260507062647 | 16 | 58 | 0.0 | 0.0 | 0.00 | 0.00 | 0.00 | 66 | 1011.2 |
| 20260507062145 | 17 | 11 | 0.0 | 0.0 | 0.00 | 0.00 | 0.00 | 63 | 1011.2 |
| 20260507061642 | 17 | 63 | 0.0 | 0.0 | 0.00 | 0.00 | 0.00 | 61 | 1011.2 |
| 20260507061140 | 17 | 55 | 0.0 | 0.0 | 0.00 | 0.00 | 0.00 | 65 | 1011.0 |
| 20260507060638 | 17 | 55 | 0.0 | 0.0 | 0.00 | 0.00 | 0.00 | 62 | 1011.0 |
| 20260507060134 | 17 | 56 | 0.0 | 0.0 | 0.00 | 0.00 | 0.00 | 61 | 1011.1 |
| 20260507055630 | 17 | 66 | 0.0 | 0.0 | 0.00 | 0.00 | 0.00 | 63 | 1011.0 |
| 20260507055126 | 18 | 59 | 0.0 | 0.0 | 0.00 | 0.00 | 0.00 | 60 | 1011.0 |
| 20260507054622 | 17 | 44 | 0.0 | 0.0 | 0.00 | 0.00 | 0.00 | 61 | 1011.0 |
| 20260507054119 | 18 | 95 | 0.0 | 0.0 | 0.00 | 0.00 | 0.00 | 60 | 1010.9 |
| 20260507053617 | 18 | 60 | 0.0 | 0.0 | 0.00 | 0.00 | 0.00 | 59 | 1010.9 |
| 20260507053115 | 18 | 51 | 0.0 | 0.0 | 0.00 | 0.00 | 0.00 | 58 | 1010.9 |
| 20260507052613 | 18 | 50 | 0.0 | 0.0 | 0.00 | 0.00 | 0.00 | 59 | 1010.9 |
| 20260507052109 | 18 | 57 | 0.0 | 0.0 | 0.00 | 0.00 | 0.00 | 59 | 1011.0 |
| 20260507051607 | 18 | 57 | 0.0 | 0.0 | 0.00 | 0.00 | 0.00 | 58 | 1011.1 |
| 20260507051103 | 18 | 47 | 0.0 | 0.0 | 0.00 | 0.00 | 0.00 | 57 | 1011.0 |
| 20260507050600 | 18 | 59 | 0.0 | 0.0 | 0.00 | 0.00 | 0.00 | 59 | 1010.8 |
| 20260507050057 | 18 | 58 | 0.0 | 0.0 | 0.00 | 0.00 | 0.00 | 60 | 1011.0 |
| 20260507045554 | 18 | 59 | 0.0 | 0.0 | 0.00 | 0.00 | 0.00 | 60 | 1010.9 |
| 20260507045051 | 19 | 91 | 0.0 | 0.0 | 0.00 | 0.00 | 0.00 | 57 | 1010.9 |
| 20260507044547 | 19 | 350 | 0.0 | 0.0 | 0.00 | 0.00 | 0.00 | 54 | 1010.9 |
| 20260507044044 | 19 | 4 | 0.0 | 0.0 | 0.00 | 0.00 | 0.00 | 55 | 1010.8 |
| 20260507043540 | 18 | 48 | 0.0 | 0.0 | 0.00 | 0.00 | 0.00 | 56 | 1010.9 |
| 20260507043038 | 19 | 33 | 0.0 | 0.0 | 0.00 | 0.00 | 0.00 | 58 | 1010.7 |
| 20260507042533 | 20 | 306 | 0.0 | 0.0 | 0.00 | 0.00 | 0.00 | 53 | 1010.8 |
| 20260507042029 | 20 | 328 | 0.0 | 0.0 | 0.00 | 0.00 | 0.00 | 54 | 1010.9 |
| 20260507041526 | 20 | 305 | 0.0 | 0.0 | 0.00 | 0.00 | 0.00 | 52 | 1010.9 |
| 20260507041023 | 20 | 8 | 0.0 | 0.0 | 0.00 | 0.00 | 0.00 | 53 | 1010.7 |
| 20260507040519 | 20 | 4 | 0.0 | 0.0 | 0.00 | 0.00 | 0.00 | 54 | 1010.7 |
| 20260507040015 | 20 | 332 | 0.0 | 0.0 | 0.00 | 0.00 | 0.00 | 53 | 1010.5 |
| 20260507035512 | 20 | 34 | 0.0 | 0.0 | 0.00 | 0.00 | 0.00 | 52 | 1010.7 |
| 20260507035008 | 20 | 60 | 0.0 | 0.0 | 0.00 | 0.00 | 0.00 | 53 | 1010.3 |
| 20260507034505 | 20 | 10 | 0.0 | 0.0 | 0.00 | 0.00 | 0.00 | 51 | 1010.4 |
| 20260507034003 | 20 | 6 | 0.0 | 0.0 | 0.00 | 0.00 | 0.00 | 51 | 1010.4 |
| 20260507033501 | 20 | 28 | 0.0 | 0.0 | 0.00 | 0.00 | 0.00 | 50 | 1010.2 |
| 20260507032958 | 21 | 346 | 0.0 | 0.0 | 0.00 | 0.00 | 0.00 | 50 | 1010.4 |
| 20260507032455 | 21 | 6 | 0.0 | 0.0 | 0.00 | 0.00 | 0.00 | 48 | 1010.3 |
| 20260507031951 | 21 | 346 | 0.0 | 0.0 | 0.00 | 0.00 | 0.00 | 49 | 1010.2 |
| 20260507031448 | 21 | 13 | 0.0 | 0.0 | 0.00 | 0.00 | 0.00 | 49 | 1010.2 |
| 20260507030944 | 20 | 3 | 0.0 | 0.0 | 0.00 | 0.00 | 0.00 | 51 | 1010.2 |
| 20260507030441 | 20 | 3 | 0.0 | 0.0 | 0.00 | 0.00 | 0.00 | 51 | 1010.4 |
| 20260507025938 | 21 | 12 | 0.0 | 0.0 | 0.00 | 0.00 | 0.00 | 50 | 1010.2 |
| 20260507025436 | 21 | 7 | 0.0 | 0.0 | 0.00 | 0.00 | 0.00 | 50 | 1010.2 |
| 20260507024933 | 21 | 330 | 0.0 | 0.0 | 0.00 | 0.00 | 0.00 | 49 | 1010.2 |
| 20260507024431 | 20 | 304 | 0.0 | 0.0 | 0.00 | 0.00 | 0.00 | 50 | 1010.2 |
| 20260507023926 | 21 | 336 | 0.0 | 0.0 | 0.00 | 0.00 | 0.00 | 53 | 1010.1 |
| 20260507023423 | 21 | 299 | 0.0 | 0.0 | 0.00 | 0.00 | 0.00 | 50 | 1010.3 |
| 20260507022920 | 21 | 307 | 1.6 | 3.2 | 0.00 | 0.00 | 0.00 | 48 | 1010.2 |
| 20260507022417 | 22 | 321 | 0.0 | 12.9 | 0.00 | 0.00 | 0.00 | 47 | 1010.1 |
| 20260507021913 | 22 | 314 | 1.6 | 9.7 | 0.00 | 0.00 | 0.00 | 46 | 1010.1 |
| 20260507021408 | 23 | 313 | 1.6 | 16.1 | 0.00 | 0.00 | 0.00 | 45 | 1010.4 |
| 20260507020906 | 22 | 306 | 8.0 | 17.7 | 0.00 | 0.00 | 0.00 | 44 | 1010.4 |
| 20260507020403 | 22 | 306 | 8.0 | 14.5 | 0.00 | 0.00 | 0.00 | 46 | 1010.5 |
| 20260507015900 | 22 | 269 | 6.4 | 11.3 | 0.00 | 0.00 | 0.00 | 46 | 1010.2 |
| 20260507015358 | 22 | 302 | 0.0 | 3.2 | 0.00 | 0.00 | 0.00 | 48 | 1010.2 |
| 20260507014855 | 22 | 288 | 1.6 | 8.0 | 0.00 | 0.00 | 0.00 | 47 | 1010.2 |
| 20260507014351 | 22 | 287 | 6.4 | 12.9 | 0.00 | 0.00 | 0.00 | 48 | 1010.4 |
| 20260507013847 | 22 | 283 | 0.0 | 1.6 | 0.00 | 0.00 | 0.00 | 50 | 1010.4 |
| 20260507013345 | 22 | 288 | 4.8 | 11.3 | 0.00 | 0.00 | 0.00 | 48 | 1010.2 |
| 20260507012842 | 22 | 284 | 12.9 | 16.1 | 0.00 | 0.00 | 0.00 | 47 | 1010.2 |
| 20260507012337 | 23 | 299 | 3.2 | 12.9 | 0.00 | 0.00 | 0.00 | 47 | 1010.3 |
| 20260507011835 | 23 | 294 | 4.8 | 9.7 | 0.00 | 0.00 | 0.00 | 45 | 1010.2 |
| 20260507011332 | 23 | 318 | 11.3 | 16.1 | 0.00 | 0.00 | 0.00 | 45 | 1010.2 |
| 20260507010826 | 23 | 316 | 11.3 | 14.5 | 0.00 | 0.00 | 0.00 | 46 | 1010.3 |
| 20260507010322 | 23 | 301 | 8.0 | 14.5 | 0.00 | 0.00 | 0.00 | 45 | 1010.3 |
| 20260507005819 | 23 | 287 | 3.2 | 11.3 | 0.00 | 0.00 | 0.00 | 46 | 1010.3 |
| 20260507005316 | 23 | 289 | 9.7 | 14.5 | 0.00 | 0.00 | 0.00 | 46 | 1010.2 |
| 20260507004812 | 23 | 278 | 1.6 | 9.7 | 0.00 | 0.00 | 0.00 | 47 | 1010.2 |
| 20260507004310 | 24 | 218 | 1.6 | 9.7 | 0.00 | 0.00 | 0.00 | 45 | 1010.0 |
| 20260507003801 | 24 | 302 | 9.7 | 16.1 | 0.00 | 0.00 | 0.00 | 44 | 1010.3 |
| 20260507003256 | 24 | 290 | 11.3 | 17.7 | 0.00 | 0.00 | 0.00 | 43 | 1010.0 |
| 20260507002752 | 24 | 302 | 14.5 | 22.5 | 0.00 | 0.00 | 0.00 | 41 | 1010.4 |
| 20260507002248 | 24 | 286 | 14.5 | 20.9 | 0.00 | 0.00 | 0.00 | 43 | 1010.4 |
| 20260507001745 | 25 | 295 | 4.8 | 20.9 | 0.00 | 0.00 | 0.00 | 46 | 1010.2 |
| 20260507001243 | 25 | 288 | 8.0 | 14.5 | 0.00 | 0.00 | 0.00 | 44 | 1010.4 |
| 20260507000739 | 24 | 298 | 11.3 | 20.9 | 0.00 | 0.00 | 0.00 | 45 | 1010.1 |
| 20260507000235 | 24 | 257 | 9.7 | 17.7 | 0.00 | 0.00 | 0.00 | 45 | 1010.1 |
| 20260506235731 | 25 | 291 | 8.0 | 20.9 | 0.00 | 0.00 | 0.00 | 42 | 1009.9 |
| 20260506235227 | 25 | 297 | 16.1 | 22.5 | 0.00 | 0.00 | 0.00 | 41 | 1010.0 |
| 20260506234724 | 25 | 296 | 6.4 | 17.7 | 0.00 | 0.00 | 0.00 | 45 | 1009.9 |
| 20260506234221 | 25 | 288 | 16.1 | 20.9 | 0.00 | 0.00 | 0.00 | 42 | 1010.2 |
| 20260506233719 | 25 | 218 | 12.9 | 25.7 | 0.00 | 0.00 | 0.00 | 44 | 1010.0 |
| 20260506233215 | 25 | 306 | 19.3 | 32.2 | 0.00 | 0.00 | 0.00 | 40 | 1010.1 |
| 20260506232711 | 25 | 295 | 14.5 | 25.7 | 0.00 | 0.00 | 0.00 | 40 | 1010.2 |
| 20260506232206 | 25 | 279 | 14.5 | 25.7 | 0.00 | 0.00 | 0.00 | 40 | 1010.2 |
| 20260506231704 | 25 | 261 | 12.9 | 25.7 | 0.00 | 0.00 | 0.00 | 41 | 1009.9 |
| 20260506231203 | 25 | 293 | 24.1 | 29.0 | 0.00 | 0.00 | 0.00 | 40 | 1010.0 |
| 20260506230659 | 26 | 271 | 20.9 | 27.4 | 0.00 | 0.00 | 0.00 | 39 | 1010.0 |
| 20260506230156 | 26 | 254 | 17.7 | 24.1 | 0.00 | 0.00 | 0.00 | 41 | 1010.2 |
| 20260506225652 | 25 | 280 | 19.3 | 25.7 | 0.00 | 0.00 | 0.00 | 39 | 1010.1 |
| 20260506225149 | 25 | 276 | 20.9 | 27.4 | 0.00 | 0.00 | 0.00 | 37 | 1010.2 |
| 20260506224645 | 25 | 291 | 16.1 | 29.0 | 0.00 | 0.00 | 0.00 | 40 | 1010.5 |
| 20260506224142 | 25 | 252 | 11.3 | 25.7 | 0.00 | 0.00 | 0.00 | 43 | 1010.4 |
| 20260506223639 | 25 | 283 | 17.7 | 24.1 | 0.00 | 0.00 | 0.00 | 42 | 1010.4 |
| 20260506223135 | 25 | 274 | 4.8 | 24.1 | 0.00 | 0.00 | 0.00 | 44 | 1010.6 |
| 20260506222632 | 25 | 250 | 14.5 | 33.8 | 0.00 | 0.00 | 0.00 | 41 | 1010.7 |
| 20260506222128 | 26 | 238 | 14.5 | 16.1 | 0.00 | 0.00 | 0.00 | 41 | 1010.7 |
| 20260506221626 | 25 | 189 | 1.6 | 14.5 | 0.00 | 0.00 | 0.00 | 43 | 1011.0 |
| 20260506221124 | 26 | 282 | 0.0 | 1.6 | 0.00 | 0.00 | 0.00 | 41 | 1010.9 |
| 20260506220620 | 26 | 225 | 1.6 | 12.9 | 0.00 | 0.00 | 0.00 | 43 | 1011.0 |
| 20260506220115 | 25 | 229 | 0.0 | 4.8 | 0.00 | 0.00 | 0.00 | 47 | 1011.2 |
| 20260506215612 | 25 | 262 | 8.0 | 12.9 | 0.00 | 0.00 | 0.00 | 42 | 1011.4 |
| 20260506215107 | 26 | 222 | 0.0 | 4.8 | 0.00 | 0.00 | 0.00 | 43 | 1011.0 |
| 20260506214605 | 26 | 241 | 0.0 | 4.8 | 0.00 | 0.00 | 0.00 | 45 | 1011.3 |
| 20260506214102 | 26 | 283 | 0.0 | 12.9 | 0.00 | 0.00 | 0.00 | 45 | 1011.3 |
| 20260506213600 | 25 | 306 | 1.6 | 12.9 | 0.00 | 0.00 | 0.00 | 42 | 1011.6 |
| 20260506213057 | 26 | 248 | 9.7 | 16.1 | 0.00 | 0.00 | 0.00 | 43 | 1011.4 |
| 20260506212554 | 25 | 220 | 1.6 | 12.9 | 0.00 | 0.00 | 0.00 | 44 | 1011.8 |
| 20260506212048 | 25 | 223 | 0.0 | 4.8 | 0.00 | 0.00 | 0.00 | 46 | 1011.6 |
| 20260506211545 | 25 | 223 | 0.0 | 3.2 | 0.00 | 0.00 | 0.00 | 45 | 1011.6 |
| 20260506211042 | 25 | 265 | 0.0 | 3.2 | 0.00 | 0.00 | 0.00 | 42 | 1011.8 |
| 20260506210539 | 25 | 226 | 0.0 | 1.6 | 0.00 | 0.00 | 0.00 | 44 | 1012.0 |
| 20260506210035 | 24 | 284 | 0.0 | 0.0 | 0.00 | 0.00 | 0.00 | 46 | 1011.7 |
| 20260506205532 | 25 | 264 | 0.0 | 1.6 | 0.00 | 0.00 | 0.00 | 43 | 1011.8 |
| 20260506205027 | 25 | 194 | 0.0 | 0.0 | 0.00 | 0.00 | 0.00 | 42 | 1012.1 |
| 20260506204525 | 25 | 200 | 6.4 | 9.7 | 0.00 | 0.00 | 0.00 | 44 | 1012.0 |
| 20260506204022 | 24 | 134 | 0.0 | 1.6 | 0.00 | 0.00 | 0.00 | 45 | 1012.0 |
| 20260506203520 | 25 | 206 | 1.6 | 11.3 | 0.00 | 0.00 | 0.00 | 44 | 1012.2 |
| 20260506203016 | 24 | 184 | 1.6 | 9.7 | 0.00 | 0.00 | 0.00 | 44 | 1012.1 |
| 20260506202514 | 24 | 229 | 3.2 | 8.0 | 0.00 | 0.00 | 0.00 | 47 | 1012.3 |
| 20260506202010 | 24 | 236 | 1.6 | 3.2 | 0.00 | 0.00 | 0.00 | 44 | 1012.4 |
| 20260506201508 | 24 | 258 | 0.0 | 1.6 | 0.00 | 0.00 | 0.00 | 43 | 1012.4 |
| 20260506201004 | 24 | 209 | 1.6 | 3.2 | 0.00 | 0.00 | 0.00 | 48 | 1012.5 |
| 20260506200501 | 23 | 255 | 0.0 | 12.9 | 0.00 | 0.00 | 0.00 | 43 | 1012.3 |
| 20260506195956 | 23 | 290 | 0.0 | 1.6 | 0.00 | 0.00 | 0.00 | 43 | 1012.1 |
| 20260506195455 | 23 | 231 | 0.0 | 4.8 | 0.00 | 0.00 | 0.00 | 42 | 1012.4 |
| 20260506194950 | 23 | 283 | 0.0 | 8.0 | 0.00 | 0.00 | 0.00 | 42 | 1012.4 |
| 20260506194448 | 23 | 276 | 0.0 | 8.0 | 0.00 | 0.00 | 0.00 | 41 | 1012.6 |
| 20260506193945 | 23 | 298 | 0.0 | 8.0 | 0.00 | 0.00 | 0.00 | 44 | 1012.6 |
| 20260506193442 | 23 | 277 | 0.0 | 11.3 | 0.00 | 0.00 | 0.00 | 49 | 1012.7 |
| 20260506192938 | 23 | 231 | 3.2 | 8.0 | 0.00 | 0.00 | 0.00 | 42 | 1012.9 |
| 20260506192436 | 23 | 248 | 0.0 | 1.6 | 0.00 | 0.00 | 0.00 | 42 | 1012.8 |
| 20260506191932 | 23 | 198 | 0.0 | 0.0 | 0.00 | 0.00 | 0.00 | 43 | 1012.9 |
| 20260506191429 | 22 | 258 | 1.6 | 3.2 | 0.00 | 0.00 | 0.00 | 44 | 1013.1 |
| 20260506190925 | 22 | 281 | 0.0 | 0.0 | 0.00 | 0.00 | 0.00 | 44 | 1013.1 |
| 20260506190422 | 22 | 281 | 0.0 | 0.0 | 0.00 | 0.00 | 0.00 | 43 | 1013.2 |
| 20260506185919 | 22 | 218 | 0.0 | 8.0 | 0.00 | 0.00 | 0.00 | 43 | 1012.9 |
| 20260506185416 | 23 | 173 | 0.0 | 0.0 | 0.00 | 0.00 | 0.00 | 42 | 1013.1 |
| 20260506184913 | 23 | 178 | 0.0 | 0.0 | 0.00 | 0.00 | 0.00 | 45 | 1013.2 |
| 20260506184410 | 22 | 10 | 0.0 | 0.0 | 0.00 | 0.00 | 0.00 | 39 | 1013.4 |
| 20260506183908 | 22 | 44 | 0.0 | 0.0 | 0.00 | 0.00 | 0.00 | 46 | 1013.4 |
| 20260506183403 | 22 | 197 | 0.0 | 0.0 | 0.00 | 0.00 | 0.00 | 41 | 1013.5 |
| 20260506182900 | 22 | 72 | 0.0 | 0.0 | 0.00 | 0.00 | 0.00 | 51 | 1013.4 |
| 20260506182357 | 22 | 166 | 0.0 | 1.6 | 0.00 | 0.00 | 0.00 | 44 | 1013.3 |
| 20260506181854 | 22 | 130 | 1.6 | 3.2 | 0.00 | 0.00 | 0.00 | 46 | 1013.4 |
| 20260506181352 | 22 | 64 | 0.0 | 8.0 | 0.00 | 0.00 | 0.00 | 46 | 1013.5 |
| 20260506180849 | 21 | 81 | 0.0 | 1.6 | 0.00 | 0.00 | 0.00 | 51 | 1013.4 |
| 20260506180345 | 21 | 117 | 1.6 | 3.2 | 0.00 | 0.00 | 0.00 | 46 | 1013.3 |
| 20260506175842 | 21 | 131 | 0.0 | 0.0 | 0.00 | 0.00 | 0.00 | 48 | 1013.7 |
| 20260506175339 | 20 | 73 | 0.0 | 0.0 | 0.00 | 0.00 | 0.00 | 49 | 1013.5 |
| 20260506174836 | 21 | 85 | 0.0 | 11.3 | 0.00 | 0.00 | 0.00 | 47 | 1013.7 |
| 20260506174333 | 20 | 81 | 0.0 | 1.6 | 0.00 | 0.00 | 0.00 | 48 | 1013.5 |
| 20260506173831 | 20 | 125 | 0.0 | 4.8 | 0.00 | 0.00 | 0.00 | 50 | 1013.5 |
| 20260506173327 | 20 | 114 | 4.8 | 11.3 | 0.00 | 0.00 | 0.00 | 47 | 1013.7 |
| 20260506172824 | 19 | 61 | 4.8 | 11.3 | 0.00 | 0.00 | 0.00 | 46 | 1013.6 |
| 20260506172321 | 19 | 82 | 0.0 | 1.6 | 0.00 | 0.00 | 0.00 | 49 | 1013.7 |
| 20260506171818 | 19 | 108 | 0.0 | 8.0 | 0.00 | 0.00 | 0.00 | 48 | 1013.6 |
| 20260506171315 | 19 | 108 | 1.6 | 8.0 | 0.00 | 0.00 | 0.00 | 48 | 1014.0 |
| 20260506170813 | 19 | 119 | 3.2 | 8.0 | 0.00 | 0.00 | 0.00 | 49 | 1013.6 |
| 20260506170309 | 18 | 78 | 0.0 | 3.2 | 0.00 | 0.00 | 0.00 | 50 | 1013.7 |
| 20260506165808 | 18 | 140 | 0.0 | 3.2 | 0.00 | 0.00 | 0.00 | 50 | 1013.7 |
| 20260506165306 | 18 | 140 | 0.0 | 11.3 | 0.00 | 0.00 | 0.00 | 50 | 1014.0 |
| 20260506164802 | 18 | 65 | 0.0 | 0.0 | 0.00 | 0.00 | 0.00 | 52 | 1013.7 |
| 20260506164258 | 17 | 142 | 0.0 | 4.8 | 0.00 | 0.00 | 0.00 | 50 | 1013.8 |
| 20260506163755 | 17 | 67 | 3.2 | 11.3 | 0.00 | 0.00 | 0.00 | 50 | 1014.0 |
| 20260506163250 | 17 | 96 | 3.2 | 11.3 | 0.00 | 0.00 | 0.00 | 50 | 1014.2 |
| 20260506162746 | 16 | 75 | 1.6 | 12.9 | 0.00 | 0.00 | 0.00 | 49 | 1014.1 |
| 20260506162244 | 16 | 118 | 8.0 | 14.5 | 0.00 | 0.00 | 0.00 | 52 | 1014.1 |
| 20260506161741 | 16 | 88 | 3.2 | 9.7 | 0.00 | 0.00 | 0.00 | 52 | 1014.2 |
| 20260506161239 | 16 | 123 | 1.6 | 11.3 | 0.00 | 0.00 | 0.00 | 54 | 1014.1 |
| 20260506160736 | 16 | 87 | 6.4 | 14.5 | 0.00 | 0.00 | 0.00 | 52 | 1014.3 |
| 20260506160232 | 15 | 70 | 8.0 | 12.9 | 0.00 | 0.00 | 0.00 | 53 | 1014.4 |
| 20260506155731 | 15 | 86 | 4.8 | 12.9 | 0.00 | 0.00 | 0.00 | 54 | 1014.2 |
| 20260506155227 | 15 | 81 | 8.0 | 12.9 | 0.00 | 0.00 | 0.00 | 54 | 1014.4 |
| 20260506153335 | 14 | 91 | 9.7 | 14.5 | 0.00 | 0.00 | 0.00 | 58 | 1014.4 |
| 20260506152832 | 13 | 117 | 9.7 | 16.1 | 0.00 | 0.00 | 0.00 | 59 | 1014.4 |
| 20260506152329 | 13 | 116 | 8.0 | 17.7 | 0.00 | 0.00 | 0.00 | 59 | 1014.5 |
| 20260506151828 | 13 | 90 | 11.3 | 22.5 | 0.00 | 0.00 | 0.00 | 60 | 1014.5 |
| 20260506151324 | 13 | 75 | 4.8 | 16.1 | 0.00 | 0.00 | 0.00 | 61 | 1014.3 |
| 20260506150821 | 13 | 71 | 6.4 | 16.1 | 0.00 | 0.00 | 0.00 | 62 | 1014.2 |
| 20260506150318 | 13 | 92 | 12.9 | 17.7 | 0.00 | 0.00 | 0.00 | 61 | 1014.1 |
| 20260506145815 | 12 | 94 | 11.3 | 16.1 | 0.00 | 0.00 | 0.00 | 63 | 1014.1 |
| 20260506145311 | 12 | 109 | 4.8 | 14.5 | 0.00 | 0.00 | 0.00 | 64 | 1014.3 |
| 20260506144809 | 12 | 94 | 9.7 | 17.7 | 0.00 | 0.00 | 0.00 | 64 | 1014.4 |
| 20260506144305 | 12 | 136 | 11.3 | 16.1 | 0.00 | 0.00 | 0.00 | 65 | 1014.3 |
| 20260506143803 | 11 | 110 | 11.3 | 16.1 | 0.00 | 0.00 | 0.00 | 66 | 1014.5 |
| 20260506143300 | 11 | 104 | 16.1 | 22.5 | 0.00 | 0.00 | 0.00 | 65 | 1014.5 |
| 20260506142759 | 11 | 105 | 12.9 | 16.1 | 0.00 | 0.00 | 0.00 | 68 | 1014.5 |
| 20260506142256 | 11 | 153 | 12.9 | 24.1 | 0.00 | 0.00 | 0.00 | 68 | 1014.5 |
| 20260506141754 | 10 | 140 | 12.9 | 16.1 | 0.00 | 0.00 | 0.00 | 70 | 1014.5 |
| 20260506141252 | 10 | 147 | 11.3 | 14.5 | 0.00 | 0.00 | 0.00 | 70 | 1014.3 |
| 20260506140750 | 10 | 76 | 14.5 | 20.9 | 0.00 | 0.00 | 0.00 | 70 | 1014.3 |
| 20260506140246 | 10 | 117 | 12.9 | 14.5 | 0.00 | 0.00 | 0.00 | 70 | 1014.6 |
| 20260506135743 | 10 | 88 | 9.7 | 20.9 | 0.00 | 0.00 | 0.00 | 70 | 1014.5 |
| 20260506135239 | 10 | 65 | 11.3 | 20.9 | 0.00 | 0.00 | 0.00 | 70 | 1014.3 |
| 20260506134737 | 10 | 97 | 9.7 | 16.1 | 0.00 | 0.00 | 0.00 | 72 | 1014.4 |
| 20260506134233 | 10 | 95 | 14.5 | 17.7 | 0.00 | 0.00 | 0.00 | 71 | 1014.4 |
| 20260506133730 | 10 | 119 | 11.3 | 17.7 | 0.00 | 0.00 | 0.00 | 69 | 1014.4 |
| 20260506133227 | 10 | 75 | 12.9 | 17.7 | 0.00 | 0.00 | 0.00 | 72 | 1014.3 |
| 20260506132724 | 10 | 101 | 11.3 | 16.1 | 0.00 | 0.00 | 0.00 | 71 | 1014.4 |
| 20260506132221 | 9 | 78 | 11.3 | 16.1 | 0.00 | 0.00 | 0.00 | 72 | 1014.3 |
| 20260506131719 | 8 | 77 | 11.3 | 17.7 | 0.00 | 0.00 | 0.00 | 73 | 1014.1 |
| 20260506131214 | 9 | 64 | 9.7 | 16.1 | 0.00 | 0.00 | 0.00 | 73 | 1014.1 |
| 20260506130712 | 9 | 112 | 11.3 | 16.1 | 0.00 | 0.00 | 0.00 | 72 | 1013.8 |
| 20260506130208 | 8 | 66 | 14.5 | 20.9 | 0.00 | 0.00 | 0.00 | 73 | 1014.2 |
| 20260506125707 | 8 | 84 | 12.9 | 17.7 | 0.00 | 0.00 | 0.00 | 73 | 1013.8 |
| 20260506125204 | 8 | 79 | 9.7 | 17.7 | 0.00 | 0.00 | 0.00 | 73 | 1013.8 |